www.pogodaiklimat.ru

Погода и климат >> Архив погоды >> Индия >> Керала >> Кожикоде


ПОГОДА в Кожикоде

  • Прогноз погоды в Кожикоде
  • Монитор погоды в Кожикоде

АРХИВ ПОГОДЫ в Кожикоде

Время (UTC), дата Ветер
(напр.,м/с)
 
Видим.   Явления Облачность Т
(С)
Тd
(С)
f
(%)
Тe
(С)
Тes
(С)
Комфортность P
(гПа)
Po
(гПа)
Тmin
(С)
Tmax
(С)
R
(мм)
R24
(мм)
S
(см)
09 19.03 ЮЗ 2 10 км ясно +35.0 +24.9 56 +48 +65 опасность
перегрева
1009.2 1008.6
12 19.03 З 2 10 км 1/1 600 м
[Sc diur, vesp]
+32.8 +25.5 66 +48 +49 опасность
перегрева
1007.9 1007.3 +35.8
15 19.03 штиль 0 4000 м 3/1 600 м
[Sc diur, vesp Ac trans]
+29.6 +23.8 71 +41 +41 опасность
перегрева
1009.5 1008.9
18 19.03 штиль 0 4000 м 4/3 600 м
[Sc diur, vesp Ac trans]
+29.4 +24.2 74 +41 +41 опасность
перегрева
1010.6 1010.0
21 19.03 штиль 0 4000 м 4/1 600 м
[Cu med, cong Ac lent]
+28.4 +25.0 82 +41 +41 опасность
перегрева
1008.9 1008.3
00 20.03 штиль 0 4000 м 4/1 600 м
[Sc diur, vesp Ac trans]
+27.4 +24.5 84 +39 +39 очень
душно
1009.6 1009.0
03 20.03 штиль 0 10 км ясно +28.4 +25.0 82 +41 +49 опасность
перегрева
1012.1 1011.5 +26.6 +35.8
06 20.03 штиль 0 10 км 4/1 600 м
[Sc diur, vesp Ac As Ci sp]
+34.0 +25.3 61 +48 +69 опасность
перегрева
1012.7 1012.1
09 20.03 З 1 10 км 3/1 600 м
[Sc diur, vesp Ci sp]
+35.0 +25.2 57 +49 +65 опасность
перегрева
1009.6 1009.0
12 20.03 З 1 10 км 3/1 600 м
[Sc diur, vesp Ci sp]
+32.6 +24.7 63 +46 +47 опасность
перегрева
1008.4 1007.8 +36.0
15 20.03 4000 м 3/1 600 м
[Sc diur, vesp Ci sp]
+29.8 +24.4 73 1010.4 1009.8
18 20.03 штиль 0 4000 м 6/3 600 м
[Sc diur, vesp Ac trans]
+29.2 +24.6 76 +41 +41 опасность
перегрева
1011.8 1011.2
21 20.03 штиль 0 4000 м 4/1 600 м
[Sc diur, vesp Ci sp]
+28.4 +24.7 80 +40 +40 очень
душно
1010.1 1009.5
00 21.03 штиль 0 4000 м 4/1 600 м
[Sc diur, vesp Ci sp]
+27.0 +24.1 84 +37 +37 очень
душно
1009.7 1009.1
03 21.03 штиль 0 10 км 1/0
[Ci sp]
+28.0 +24.6 82 +40 +47 очень
душно
1012.8 1012.2 +26.4 +36.0
06 21.03 штиль 0 10 км 3/0
[Ci sp]
+33.8 +24.8 59 +47 +73 опасность
перегрева
1013.7 1013.1
09 21.03 штиль 0 10 км 3/0
[Ci sp]
+35.0 +25.2 57 +49 +69 опасность
перегрева
1010.3 1009.7
12 21.03 штиль 0 10 км 1/0
[Ci sp]
+32.8 +26.4 69 +49 +51 опасность
перегрева
1009.2 1008.6 +36.0
15 21.03 штиль 0 4000 м 1/0
[Ci sp]
+29.6 +25.1 77 +43 +43 опасность
перегрева
1011.3 1010.7
18 21.03 штиль 0 4000 м 1/0
[Ci sp]
+28.4 +25.0 82 +41 +41 опасность
перегрева
1013.1 1012.5
21 21.03 штиль 0 4000 м 1/0
[Ci sp]
+27.6 +24.4 83 +39 +39 очень
душно
1011.7 1011.1
00 22.03 штиль 0 4000 м 1/0
[Ci sp]
+26.8 +24.2 86 +37 +37 очень
душно
1011.5 1010.9
03 22.03 штиль 0 10 км 1/0
[Ci sp]
+27.6 +24.1 81 +38 +46 очень
душно
1013.8 1013.2 +26.2 +36.0
06 22.03 штиль 0 10 км 1/0
[Ci sp]
+34.0 +24.0 56 +46 +73 опасность
перегрева
1013.7 1013.1
09 22.03 З 1 10 км 1/0
[Ci sp]
+33.8 +24.1 57 +46 +64 опасность
перегрева
1010.3 1009.7
12 22.03 З 1 10 км 1/0
[Ci sp]
+32.2 +25.5 68 +47 +48 опасность
перегрева
1009.2 1008.6 +35.8
15 22.03 штиль 0 4000 м 1/0
[Ci sp]
+29.4 +22.7 67 +39 +39 очень
душно
1011.1 1010.5
18 22.03 штиль 0 4000 м 3/1 600 м
[Sc diur, vesp Ci sp]
+29.0 +24.7 78 +41 +41 опасность
перегрева
1012.5 1011.9
21 22.03 штиль 0 4000 м 3/1 600 м
[Sc diur, vesp Ci sp]
+28.0 +24.3 80 +39 +39 очень
душно
1011.2 1010.6
00 23.03 штиль 0 4000 м 1/0
[Ci sp]
+26.8 +23.9 84 +37 +37 очень
душно
1011.3 1010.7
03 23.03 штиль 0 10 км ясно +28.0 +23.9 78 +39 +46 очень
душно
1014.1 1013.5 +26.2 +35.5
06 23.03 З 1 10 км 1/0
[Ci sp]
+32.4 +23.8 61 +44 +67 опасность
перегрева
1013.5 1012.9
09 23.03 З 1 10 км 1/1 600 м
[Sc diur, vesp]
+35.0 +24.9 56 +48 +65 опасность
перегрева
1010.6 1010.0
12 23.03 З 1 10 км ясно +32.8 +25.2 64 +47 +48 опасность
перегрева
1009.6 1009.0 +36.0
15 23.03 штиль 0 4000 м 3/1 600 м
[Sc diur, vesp Ac trans]
+30.0 +24.9 74 +43 +43 опасность
перегрева
1011.0 1010.4
18 23.03 штиль 0 4000 м 4/1 600 м
[Sc diur, vesp Ac trans]
+29.2 +25.2 79 +42 +42 опасность
перегрева
1012.3 1011.7
21 23.03 штиль 0 4000 м 1/0
[Ci sp]
+28.2 +25.1 83 +41 +41 опасность
перегрева
1011.1 1010.5
00 24.03 штиль 0 4000 м ясно +27.0 +24.7 87 +38 +38 очень
душно
1010.9 1010.3
03 24.03 штиль 0 10 км ясно +28.2 +25.1 83 +41 +49 опасность
перегрева
1012.7 1012.1 +26.2 +36.0
06 24.03 штиль 0 10 км ясно +33.2 +24.7 61 +46 +74 опасность
перегрева
1012.7 1012.1
09 24.03 штиль 0 10 км ясно +34.6 +25.0 58 +48 +70 опасность
перегрева
1008.8 1008.2
12 24.03 штиль 0 10 км 3/3 600 м
[Sc diur, vesp]
+32.4 +25.4 67 +47 +48 опасность
перегрева
1007.8 1007.2 +35.8
15 24.03 штиль 0 4000 м ясно +30.0 +25.5 77 +44 +44 опасность
перегрева
1009.7 1009.1
18 24.03 штиль 0 4000 м ясно +29.0 +25.3 80 +42 +42 опасность
перегрева
1009.3 1008.7
21 24.03 штиль 0 4000 м ясно +28.2 +25.1 83 +41 +41 опасность
перегрева
1009.2 1008.6
00 25.03 штиль 0 4000 м ясно +26.2 +24.5 90 +37 +37 очень
душно
1007.6 1007.0
03 25.03 штиль 0 10 км ясно +28.0 +24.3 80 +39 +47 очень
душно
1011.1 1010.5 +26.1 +35.8
06 25.03 штиль 0 10 км ясно +34.4 +24.8 57 +47 +75 опасность
перегрева
1010.9 1010.3
09 25.03 ЮЗ 1 10 км ясно +35.4 +25.0 55 +49 +68 опасность
перегрева
1007.9 1007.3
12 25.03 штиль 0 10 км ясно +32.4 +26.3 70 +49 +50 опасность
перегрева
1007.7 1007.1 +36.0
15 25.03 штиль 0 4000 м 3/3 600 м
[Sc diur, vesp]
+30.0 +25.9 79 +45 +45 опасность
перегрева
1010.5 1009.9
18 25.03 штиль 0 4000 м 1/1 600 м
[Sc diur, vesp]
+29.6 +25.1 77 +43 +43 опасность
перегрева
1012.0 1011.4
21 25.03 штиль 0 4000 м 1/1 600 м
[Sc diur, vesp]
+28.2 +25.1 83 +41 +41 опасность
перегрева
1010.5 1009.9
00 26.03 штиль 0 4000 м ясно +27.6 +23.8 80 +38 +38 очень
душно
1010.5 1009.9
03 26.03 штиль 0 10 км ясно +29.4 +26.0 82 +44 +52 опасность
перегрева
1012.4 1011.8 +27.0 +36.0
06 26.03 З 1 10 км 1/1 600 м
[Sc diur, vesp]
+34.6 +26.3 62 +51 +72 опасность
перегрева
1012.7 1012.1

 

Местоположение метеостанции Кожикоде (Керала, Индия): широта 11.25 долгота 75.78 высота над уровнем моря 5 м.

В архиве по умолчанию представлена погода в Кожикоде за последнюю неделю. Архивные данные за месяц целиком и за предыдущие месяцы, начиная с января 2011 года, Вы можете получить, выбрав интересующий диапазон дат из раскрывающегося списка и нажав кнопку "Ввод!".


*Определитесь, кто Вы:
робот инопланетянин человек

Внимание! Время в таблицах - всемирное. Для получения местного времени необходимо прибавить поправку, которая равна 5.5 ч.

Смотрите также архив погоды в соседних городах и на ближайших метеорологических станциях:

Погода в Карипере (Керала, Индия) (23 км)
Погода в Каннаноре (Керала, Индия) (81 км)
Погода в Триссуре (Керала, Индия) (94 км)
Погода в Удагамандаламе (Тамилнад, Индия) (105 км)
Погода в Палаккаде (Керала, Индия) (109 км)
Погода в Кунуре (Тамилнад, Индия) (112 км)
Погода в Мадикери (Карнатака, Индия) (130 км)
Погода в Коти (Керала, Индия) (140 км)
Погода в Коимбатуре (Тамилнад, Индия) (141 км)
Погода в Чамраджнагаре (Карнатака, Индия) (146 км)

Пояснения к столбцам:

Ветер - указаны скорость ветра в м/с - средняя за 10 мин, порывы в срок и между сроками (в фигурных скобках) и направление, откуда дует ветер: С - северный, СВ - северо-восточный, В - восточный, ЮВ - юго-восточный, Ю - южный, ЮЗ - юго-западный, З - западный, СЗ - северо-западный.
Видимость - горизонтальная дальность видимости в метрах или километрах. При видимости от 1 до 10 км при отсутствии осадков обычно наблюдается дымка, при ухудшении видимости до 1 км и менее - туман. В сухую погоду видимость может ухудшаться дымом, пылью или мглою.
Явления - указаны атмосферные явления, наблюдавшиеся в срок или в последний час перед сроком; фигурными скобками обозначены явления, наблюдавшиеся между сроками (за 1-3 часа до срока); квадратными скобками обозначены град или гололедные отложения с указанием их диаметра в мм.
Облачность - указаны через наклонную черту общая и нижняя облачность в баллах и высота нижней границы облаков в метрах; квадратными скобками обозначены формы облаков: Ci - перистые, Cs - перисто-слоистые, Cc - перисто-кучевые, Ac - высококучевые, As - высокослоистые, Sc - слоисто-кучевые, Ns - слоисто-дождевые, Cu - кучевые, Cb - кучево-дождевые. Подробнее классификацию облаков см. в Атласе облаков (PDF).
T - Температура воздуха - температура, измеренная на высоте 2 м над землей.
Td - Температура точки росы - температура, при понижении до которой содержащийся в воздухе водяной пар достигнет насыщения.
f - Относительная влажность воздуха - влажноcть воздуха, измеренная на высоте 2 м над землей.
Te - Эффективная температура - температура, которую ощущает одетый по сезону человек в тени. Характеристика душности погоды. При расчете учитывается влияние влажности воздуха и скорости ветра на теплоощущения человека.
Tes - Эффективная температура на солнце - температура, которую ощущает человек, с поправкой на солнечный нагрев. Характеристика знойности погоды. Зависит от высоты солнца над горизонтом, облачности и скорости ветра. Ночью, в пасмурную погоду, а также при ветре 12 м/с и более поправка равна нулю.
P - Атмосферное давление - приведенное к уровню моря атмосферное давление.
Po - Атмосферное давление - измеренное на уровне метеостанции атмосферное давление.
Tmin - Минимальная температура - минимум температуры воздуха на высоте 2 м над землей.
Tmax - Максимальная температура - максимум температуры воздуха на высоте 2 м над землей.
R - Количество осадков - Количество выпавших осадков за период времени, мм. При наведении курсора мыши на число - период времени, за который выпало указанное количество осадков.
R24 - Количество осадков - Количество выпавших осадков за 24 часа, мм.
S - Снежный покров - Высота снежного покрова, см. При наведении курсора мыши на число - состояние снежного покрова и степень покрытия местности в баллах.